Starlink 5293

operational
NORAD ID: 55295 Int'l Des: 2023-010 Owner: SPXS Country: US Constellation: starlink
LEOCIRCULAR

About Starlink 5293

Description loading...

Live Position

Loading 3D Globe...

Upcoming Passes

Altitude History

Altitude vs Time

uPlot chart will show altitude changes over time

Two-Line Element Set

1 55295U 23010AC 26062.15398869 .00000279 00000-0 31214-4 0 9990
2 55295 69.9995 61.0685 0002999 269.8745 90.2070 14.98330712171804
Epoch: Mar 3, 2026 • Age: 31 hours

Current Status

Altitude 583.0 km
Velocity 7.57 km/s
Sub-Earth Point 57.79°N, 70.74°W
Launch Date Jan 19, 2023
Age 3.1 years
Type internet

Technical Details

Classification Payload
Mass 305.00 kg
Dry Mass 290.00 kg
Total Mass 305.00 kg
Length 0.20 m
Diameter 2.80 m
Span 9.00 m
Shape Box + pan
Manufacturer SPXS
Bus Type Starlink
Phase Status In Orbit
Owner/State SPXS/US

Large Constellations

Loading constellations...